Date,TemperatureHighF,TemperatureAvgF,TemperatureLowF,DewpointHighF,DewpointAvgF,DewpointLowF,HumidityHigh,HumidityAvg,HumidityLow,PressureMaxIn,PressureMinIn,WindSpeedMaxMPH,WindSpeedAvgMPH,GustSpeedMaxMPH,PrecipitationSumIn
2013-1-1,37,32,19,27,20,9,75,62,48,30.02,29.83,29,2,29,0.02
2013-1-2,34,21,9,17,10,5,88,65,47,30.20,29.98,14,1,14,0.01
2013-1-3,27,16,6,14,3,-5,81,57,31,30.23,30.09,13,1,13,0.00
2013-1-4,40,30,17,25,21,12,84,70,51,30.09,29.91,16,1,16,0.05
2013-1-5,44,32,21,26,22,17,86,67,44,30.35,29.96,13,1,13,0.00
2013-1-6,28,26,22,26,22,18,92,86,84,30.32,30.17,1,0,1,0.00
2013-1-7,44,32,21,31,24,18,93,74,47,30.49,30.05,3,0,13,0.00
2013-1-8,49,32,18,32,25,16,95,79,50,30.46,30.36,5,1,25,0.00
2013-1-9,45,34,22,37,29,19,94,82,66,30.48,30.09,14,1,16,0.00
2013-1-10,44,42,40,33,30,27,72,64,53,30.24,30.16,20,2,20,0.00
2013-1-11,39,33,25,36,28,22,94,83,70,30.61,30.28,1,0,5,0.20
2013-1-12,44,41,38,42,40,36,95,95,94,30.30,30.20,4,0,4,0.04
2013-1-13,53,46,41,50,45,40,100,94,90,30.24,30.09,10,0,10,0.01
2013-1-14,62,51,40,54,44,31,95,77,41,30.33,29.96,15,1,15,0.01
2013-1-15,42,37,32,33,30,26,89,76,59,30.39,30.28,8,0,8,0.04
2013-1-16,35,33,31,32,30,26,95,90,70,30.32,29.88,6,0,6,0.04
2013-1-17,43,35,28,34,29,19,95,79,60,30.17,29.93,14,1,14,0.35
2013-1-18,32,24,17,20,8,0,71,50,32,30.56,30.10,17,1,17,0.00
2013-1-19,47,37,17,34,26,9,83,65,48,30.49,29.99,22,2,24,0.02
2013-1-20,56,43,29,35,28,10,76,57,36,30.02,29.65,28,2,28,0.00
2013-1-21,29,26,19,22,13,8,90,61,41,30.19,29.87,9,0,14,0.00
2013-1-22,26,20,13,21,8,-2,92,62,36,30.18,29.83,20,1,20,0.03
2013-1-23,18,12,6,3,-3,-8,68,51,38,30.25,30.16,18,2,18,0.00
2013-1-24,21,10,2,-2,-6,-8,66,50,33,30.33,30.17,15,1,22,0.00
2013-1-25,26,17,8,14,-1,-7,82,45,29,30.42,30.13,10,1,10,0.00
2013-1-26,27,18,10,14,6,-4,89,62,35,30.34,30.08,15,1,15,0.00
2013-1-27,33,21,12,8,4,0,66,48,29,30.56,30.33,19,1,19,0.00
2013-1-28,32,25,18,28,16,3,93,68,39,30.55,30.08,7,0,7,0.00
2013-1-29,34,31,28,32,30,26,94,92,89,30.28,30.08,4,0,4,0.12
2013-1-30,60,49,33,57,47,32,96,93,88,30.24,29.56,28,3,28,0.07
2013-1-31,62,49,31,58,38,15,93,69,39,29.69,29.08,35,4,35,0.44
2013-2-1,34,28,21,18,11,6,62,49,36,30.19,29.69,16,2,16,0.00
2013-2-2,31,24,16,16,10,6,70,55,39,30.35,30.14,15,1,15,0.00
2013-2-3,33,26,20,23,20,15,92,78,63,30.15,29.81,10,0,10,0.00
2013-2-4,32,24,18,21,12,7,86,62,38,30.05,29.81,16,1,16,0.00
2013-2-5,26,24,20,22,17,11,90,75,63,30.11,30.01,5,0,5,0.00
2013-2-6,25,25,25,23,23,22,91,90,89,30.03,29.99,3,0,3,0.00
2013-2-7,33,25,17,14,9,5,69,50,32,30.62,30.39,2,0,12,0.00
2013-2-8,33,30,0,31,27,0,95,88,65,30.56,29.56,13,1,13,0.02
2013-2-9,24,20,14,23,17,10,100,91,85,30.28,29.55,0,0,0,0.00
2013-2-10,40,21,6,28,15,2,89,80,44,30.49,30.28,8,0,8,0.14
2013-2-11,43,31,12,41,29,9,96,93,89,30.45,29.69,9,0,9,0.44
2013-2-12,44,38,28,40,30,24,96,73,53,29.99,29.69,21,1,21,0.05
2013-2-13,46,34,23,29,25,19,88,72,47,29.96,29.76,10,0,11,0.00
2013-2-14,47,35,26,29,24,21,91,68,37,30.09,29.78,12,1,12,0.01
2013-2-15,51,36,24,37,30,21,95,80,54,30.10,30.00,15,1,15,0.01
2013-2-16,36,33,29,32,30,21,95,86,66,30.03,29.75,13,0,13,0.03
2013-2-17,31,23,17,24,12,2,90,67,38,29.79,29.48,31,4,31,0.00
2013-2-18,32,20,15,5,2,1,55,48,29,30.12,29.79,21,3,21,0.03
2013-2-19,48,34,17,41,26,6,94,74,50,30.27,29.67,6,1,23,0.29
2013-2-20,39,32,26,37,21,12,95,64,43,29.88,29.63,5,2,23,0.07
2013-2-21,35,28,23,17,15,13,72,58,44,30.28,29.88,5,2,20,0.00
2013-2-22,41,31,23,26,22,17,83,68,50,30.45,30.28,3,1,11,0.00
2013-2-23,38,34,30,33,29,25,94,84,72,30.41,29.96,4,1,12,0.28
2013-2-24,36,34,32,35,33,30,95,94,92,29.96,29.75,4,1,13,0.58
2013-2-25,42,35,29,34,31,28,94,86,68,30.33,29.96,10,0,10,0.09
2013-2-26,45,37,32,35,30,27,94,77,55,30.41,30.21,10,0,10,0.00
2013-2-27,43,40,36,41,38,31,95,93,82,30.21,29.65,18,1,18,0.77
2013-2-28,47,38,33,41,35,31,95,91,76,29.73,29.60,7,0,7,0.24
2013-3-1,48,39,32,34,31,27,95,74,53,29.76,29.60,8,1,13,0.10
2013-3-2,42,38,34,30,28,26,74,67,58,29.77,29.70,10,1,10,0.01
2013-3-3,45,36,32,30,28,25,88,72,54,29.72,29.63,3,1,13,0.01
2013-3-4,41,34,28,28,24,21,85,65,52,29.82,29.67,5,3,20,0.03
2013-3-5,49,38,30,33,28,22,89,68,49,30.14,29.82,3,1,15,0.00
2013-3-6,41,37,33,36,33,30,93,87,73,30.15,30.07,8,3,28,0.10
2013-3-7,36,33,31,33,30,28,93,91,82,30.07,30.01,7,3,25,0.23
2013-3-8,37,32,30,33,29,26,94,88,66,30.20,29.98,5,2,19,0.11
2013-3-9,49,37,29,32,27,21,92,68,49,30.42,30.20,8,1,14,0.21
2013-3-10,50,37,28,36,31,26,93,79,53,30.49,30.40,11,1,11,0.01
2013-3-11,51,42,36,43,38,32,92,84,69,30.41,30.24,16,2,16,0.00
2013-3-12,54,49,41,52,47,39,95,92,86,30.24,29.81,18,3,24,0.53
2013-3-13,54,44,30,50,32,23,95,67,35,29.87,29.78,14,2,14,0.13
2013-3-14,35,32,30,27,26,25,83,77,70,29.86,29.85,6,0,7,0.00
2013-3-15,43,31,21,28,16,9,80,55,27,29.97,29.74,3,1,14,0.00
2013-3-16,42,35,26,28,18,10,83,51,30,29.95,29.78,8,1,11,0.00
2013-3-17,40,32,23,21,14,5,76,51,25,30.39,29.94,18,1,18,0.00
2013-3-18,37,29,19,26,12,2,85,49,31,30.54,30.30,12,1,12,0.00
2013-3-19,38,33,29,36,31,26,94,92,85,30.30,29.65,14,1,14,0.55
2013-3-20,42,33,26,29,23,19,90,68,44,29.90,29.77,15,1,15,0.22
2013-3-21,39,32,24,28,24,20,88,74,57,29.91,29.68,9,0,9,0.00
2013-3-22,42,35,27,28,20,17,86,57,39,29.85,29.69,16,2,16,0.00
2013-3-23,45,36,29,26,22,18,78,57,37,29.89,29.75,22,2,22,0.00
2013-3-24,52,39,29,29,24,20,80,56,35,29.92,29.79,14,1,14,0.00
2013-3-25,47,37,30,33,29,26,89,74,47,29.84,29.56,20,2,20,0.01
2013-3-26,37,36,36,32,31,29,86,82,77,29.62,29.59,7,1,9,0.00
2013-3-28,49,42,37,35,33,30,89,70,51,30.10,29.93,3,1,10,0.01
2013-3-29,58,47,37,36,32,29,83,58,34,30.13,30.04,2,1,12,0.00
2013-3-30,60,48,35,34,27,19,75,48,21,30.18,30.08,4,1,14,0.00
2013-3-31,58,44,28,44,30,23,92,62,29,30.20,29.81,6,2,20,0.06
2013-4-1,61,48,35,47,39,15,94,74,40,29.88,29.60,6,2,23,0.28
2013-4-2,42,34,27,20,16,10,71,48,29,30.06,29.89,5,2,19,0.00
2013-4-3,47,37,29,18,16,13,60,43,27,30.27,30.04,9,2,23,0.00
2013-4-4,58,41,26,31,20,14,77,47,21,30.41,30.16,9,1,16,0.00
2013-4-5,63,47,38,37,30,20,78,55,24,30.17,29.70,19,2,19,0.00
2013-4-6,50,40,29,27,16,7,74,42,18,30.41,29.96,17,1,17,0.00
2013-4-7,53,41,25,43,31,21,89,68,37,30.42,30.11,27,3,27,0.00
2013-4-8,69,54,40,45,42,38,95,68,33,30.18,30.05,12,1,12,0.00
2013-4-9,76,59,47,56,46,40,94,66,32,30.17,29.92,11,2,16,0.00
2013-4-10,68,53,45,51,46,43,93,79,53,30.08,29.92,8,1,14,0.29
2013-4-11,55,49,46,47,43,35,94,81,60,30.20,29.89,11,1,11,0.01
2013-4-12,46,41,38,38,35,30,93,82,64,30.22,29.83,16,2,16,0.39
2013-4-13,56,45,37,42,37,34,93,75,48,30.02,29.80,14,1,14,0.02
2013-4-14,54,45,37,40,33,26,89,65,38,30.30,30.00,16,1,16,0.00
2013-4-15,56,45,33,39,33,28,86,66,43,30.48,30.30,11,1,13,0.00
2013-4-16,60,50,34,50,43,33,95,78,59,30.49,30.17,21,3,21,0.00
2013-4-17,70,58,43,53,43,30,88,60,24,30.41,30.15,14,1,14,0.00
2013-4-18,60,50,36,47,38,30,95,68,37,30.49,30.23,20,3,20,0.00
2013-4-19,71,62,52,62,58,47,95,87,73,30.24,29.77,28,4,28,0.01
2013-4-20,64,55,46,61,44,28,93,69,42,30.30,29.70,21,2,21,0.28
2013-4-21,57,44,33,33,26,21,82,51,28,30.75,30.30,18,2,18,0.05
2013-4-22,54,43,32,36,32,27,91,67,38,30.81,30.65,16,2,16,0.00
2013-4-23,44,42,39,41,38,32,93,88,73,30.66,30.16,16,2,16,0.02
2013-4-24,42,42,42,40,40,40,93,93,92,30.16,30.04,13,2,13,0.00
2013-4-26,64,51,37,42,36,29,85,59,35,30.49,30.34,6,1,15,0.00
2013-4-27,62,49,35,44,38,34,95,69,40,30.50,30.39,5,1,14,0.00
2013-4-28,65,52,35,44,36,33,94,61,32,30.42,30.33,8,2,21,0.00
2013-4-29,65,54,44,47,39,30,94,61,27,30.36,30.30,7,2,15,0.00
2013-4-30,68,54,38,41,33,26,86,51,24,30.43,30.33,6,1,14,0.01
2013-5-1,71,54,35,47,39,32,89,61,30,30.55,30.44,3,1,14,0.00
2013-5-2,78,59,39,49,43,38,95,59,28,30.55,30.41,14,1,14,0.00
2013-5-3,62,51,41,46,42,38,88,71,55,30.58,30.45,16,1,16,0.00
2013-5-4,63,50,37,46,39,33,95,68,34,30.45,30.36,17,1,17,0.03
2013-5-5,65,50,35,47,40,33,95,73,42,30.40,30.31,11,1,11,0.02
2013-5-6,70,54,43,54,46,40,91,76,49,30.37,30.23,14,1,14,0.03
2013-5-7,74,60,44,62,52,42,95,79,55,30.27,30.18,15,1,15,0.03
2013-5-8,71,62,54,63,58,52,95,88,73,30.27,30.11,19,2,19,0.14
2013-5-9,70,61,58,62,58,56,95,91,69,30.12,29.94,10,0,10,0.11
2013-5-10,80,66,53,61,56,51,96,73,43,30.03,29.96,11,0,11,0.03
2013-5-11,72,62,57,62,59,55,94,88,69,30.01,29.78,22,2,22,0.01
2013-5-12,72,61,47,61,53,32,95,78,43,29.90,29.64,4,1,14,0.01
2013-5-13,62,52,38,38,33,29,85,50,32,30.11,29.91,14,1,14,0.00
2013-5-14,60,49,38,36,33,29,80,55,34,30.14,30.05,13,1,13,0.00
2013-5-15,64,51,35,53,42,32,92,72,36,30.14,29.77,23,2,23,0.01
2013-5-16,83,67,48,52,47,39,95,56,23,29.88,29.71,18,1,18,0.00
2013-5-17,72,59,47,50,45,41,90,62,36,30.30,29.88,13,1,13,0.00
2013-5-18,48,45,42,44,42,40,93,91,85,30.35,30.30,1,0,1,0.00
2013-5-20,45,42,0,41,39,0,94,89,82,29.85,29.83,11,2,14,0.00
2013-5-21,60,51,40,47,41,38,97,70,48,30.22,29.86,16,2,20,0.00
2013-5-22,74,59,42,48,42,37,95,59,27,30.29,30.15,13,1,15,0.00
2013-5-23,46,45,44,45,43,42,94,94,94,30.30,30.29,0,0,0,0.00
2013-5-24,58,58,58,57,57,57,95,94,94,30.20,30.19,2,0,6,0.00
2013-5-25,63,63,62,62,61,61,95,95,95,30.15,30.14,0,0,0,0.00
2013-5-29,74,64,50,68,60,43,95,88,70,29.98,29.85,2,0,8,0.00
2013-5-30,73,63,51,53,49,44,91,62,41,30.19,29.98,9,1,14,0.00
2013-7-2,92,82,76,79,74,72,90,78,61,30.02,29.97,7,0,8,0.01
2013-7-3,76,74,73,73,72,70,94,92,90,30.01,29.98,1,0,4,0.00
2013-8-28,76,73,71,73,71,68,95,93,89,29.86,29.79,8,0,15,0.02
2013-8-29,71,71,69,70,69,68,95,94,93,29.83,29.77,4,0,4,0.00
2013-8-30,59,58,57,57,56,55,94,93,92,29.95,29.90,3,0,6,0.00
2013-8-31,59,59,58,58,57,56,95,94,93,29.98,29.96,0,0,1,0.00
2013-12-30,24,22,20,13,12,11,68,65,61,30.23,30.21,7,0,7,0.25
2013-12-31,28,20,16,18,10,4,92,67,45,30.29,30.11,9,0,9,0.00
2014-1-1,31,22,12,16,12,8,86,64,42,30.47,30.29,13,0,13,0.01
2014-1-2,24,16,4,19,13,0,92,86,61,30.43,29.86,19,1,19,0.00